Terminal Aerodrome Forecast
Issued by NWS

Home | Current Version | Previous Version | Text Only | Print | Product List | Glossary On
Versions: 1 2 3 4 5 6 7 8 9 10 11 12 13 14 15 16 17 18 19 20 21 22 23 24
000
FTUS42 KTBW 022300
TAFPGD
TAF
KPGD 022321Z 0300/0324 05006KT P6SM FEW040
     FM030200 05004KT P6SM SKC
     FM030700 07003KT 3SM BR BKN008
     FM030900 07003KT 1/2SM FG OVC003
     FM031500 12006KT P6SM BKN010
     FM031600 12012KT P6SM SCT025 SCT250=

USA.gov is the U.S. government's official web portal to all federal, state and local government web resources and services.